Location: Nairn
(57.5833°N, 3.8667°W)
Time: 17:41:26
(UTC+00:00)

S-56A Canister/Altair - Pass Details

Date: 04 December 2020
Orbit: 633 x 2499 km, 38.9° (Epoch: 19 January)

Event Time Altitude Azimuth Distance (km) Brightness Sun altitude
Rises 22:42:49 0° 262° (W) 5,100 11.9 -51.7°
Enters shadow 22:46:10 - 251° (WSW) 4,225 11.4 -51.9°
Reaches altitude 10° 22:48:46 10° 239° (WSW) 3,633 - -52.1°
Maximum altitude 22:52:26 13° 215° (SW) 3,083 - -52.4°
Drops below altitude 10° 22:55:38 10° 190° (S) 3,044 - -52.6°
Sets 22:59:43 0° 163° (SSE) 3,648 - -52.8°
